Regional Weather Roundup
Issued by NWS Raleigh/Durham, NC

Home | Current Version | Previous Version | Text Only | Print | Product List | Glossary On
Versions: 1 2 3 4 5 6 7 8 9 10 11 12 13 14 15 16 17 18 19 20 21 22 23 24 25 26 27 28 29 30 31 32 33 34 35 36 37 38 39 40 41 42 43 44 45 46 47 48 49
000
ASUS42 KRAH 292310
RWRRAH
NORTH CAROLINA WEATHER ROUNDUP
NATIONAL WEATHER SERVICE RALEIGH NC
700 PM EDT SUN MAR 29 2015

NOTE: "FAIR" INDICATES FEW OR NO CLOUDS BELOW 12,000 FEET WITH NO
SIGNIFICANT WEATHER AND/OR OBSTRUCTIONS TO VISIBILITY.

NCZ001-053-055-056-065-067-300000-
WESTERN NORTH CAROLINA

CITY           SKY/WX    TMP DP  RH WIND       PRES   REMARKS
ASHEVILLE      CLEAR     51  12  21 S10       30.19F
JEFFERSON      PTCLDY    45   6  20 SE5       30.16S
MORGANTON      CLEAR    N/A N/A N/A S7        30.25F
HICKORY        CLEAR     51   8  17 S13G20    30.22F
RUTHERFORDTON  CLEAR     53  11  19 S7        30.24F
MOUNT AIRY     CLEAR     51   4  14 S7        30.22F
BOONE          PTCLDY    45  10  24 S3G20     30.17F
$$

NCZ021-022-025-041-071-084-088-300000-
CENTRAL NORTH CAROLINA

CITY           SKY/WX    TMP DP  RH WIND       PRES   REMARKS
CHARLOTTE      PTCLDY    52   9  17 S10       30.27F
GREENSBORO     MOCLDY    49   8  19 S8        30.24F
WINSTON-SALEM  CLEAR     50   9  19 S9G18     30.24F
RALEIGH-DURHAM PTCLDY    50  11  20 SW8       30.29F
FORT BRAGG     CLEAR     51   9  18 VRB5      30.29F
FAYETTEVILLE   CLEAR     51  11  20 S7        30.30F
BURLINGTON     CLEAR     50   5  16 S5        30.26F
LAURINBURG     CLEAR     51   6  16 W5        30.31F
$$

NCZ011-015-027-028-043-044-047-080-103-300000-
NORTHEASTERN NORTH CAROLINA

CITY           SKY/WX    TMP DP  RH WIND       PRES   REMARKS
ROCKY MT-WILSO CLEAR     47  16  29 S5        30.31F
GREENVILLE     CLEAR     46  16  29 SW7       30.34R
WASHINGTON     CLEAR     46  14  28 NW3       30.34S
ELIZABETH CITY CLEAR     44  13  28 SW3       30.31S
MANTEO         CLEAR     38  21  50 E5        30.32S WCI  35
CAPE HATTERAS  CLEAR     40  21  46 E5        30.34R
$$

NCZ078-087-090-091-093-098-101-300000-
SOUTHEASTERN NORTH CAROLINA

CITY           SKY/WX    TMP DP  RH WIND       PRES   REMARKS
LUMBERTON      CLEAR     50  17  27 S6        30.31F
GOLDSBORO      CLEAR     49  16  27 SW7       30.30F
KINSTON        CLEAR     48  14  25 SW3       30.34F
KENANSVILLE    CLEAR     48  12  23 W3        30.35F
NEW BERN       CLEAR     47  15  27 W8        30.35R
CHERRY POINT   CLEAR     47  12  24 W10       30.36R
BEAUFORT       CLEAR     47  16  29 NW8       30.35R
JACKSONVILLE   CLEAR     48  12  23 W7        30.34S
WILMINGTON     CLEAR     48  24  39 S8        30.34S
$$



USA.gov is the U.S. government's official web portal to all federal, state and local government web resources and services.